Regional Weather Roundup
Issued by NWS Portland, ME

Current Version | Previous Version | Text Only | Print | Product List | Glossary Off
Versions: 1 2 3 4 5 6 7 8 9 10 11 12 13 14 15 16 17 18 19 20 21 22 23 24 25 26 27 28 29 30 31 32 33 34 35 36 37 38 39 40 41 42 43 44 45 46 47 48 49 50
382 ASUS41 KGYX 280610 RWRGYX WEATHER ROUNDUP FOR MAINE AND NEW HAMPSHIRE NATIONAL WEATHER SERVICE GRAY ME 200 AM EDT SAT MAY 28 2016 MEZ002-005-006-010-012-015-018-020-021-024-026-027-029-280700- MAINE CITY SKY/WX TMP DP RH WIND PRES REMARKS PORTLAND PTCLDY 53 52 96 CALM 30.02S FOG 6HR MIN TEMP: 52; 6HR MAX TEMP: 54; 6HR PCP: TRACE; SANFORD CLEAR 52 46 82 CALM 30.03R BAR HARBOR CLOUDY 52 52 100 S9 30.01F FOG WISCASSET CLOUDY 53 51 93 CALM 30.04F FOG 6HR MIN TEMP: 52; 6HR MAX TEMP: 54; ROCKLAND FOG 52 51 97 NE3 30.03F VSB 1/2 FRYEBURG CLEAR 56 56 100 W3 30.02R 6HR MIN TEMP: 56; 6HR MAX TEMP: 69; LEWISTONAUBURN PTCLDY 54 50 87 CALM 30.03S AUGUSTA CLOUDY 53 52 96 S5 30.01F FOG 6HR MIN TEMP: 52; 6HR MAX TEMP: 56; WATERVILLE MOCLDY 53 52 96 W3 29.99S BANGOR CLOUDY 55 52 89 SW3 30.01R FOG 6HR MIN TEMP: 54; 6HR MAX TEMP: 57; 6HR PCP: 0.10; GREENVILLE N/A 55 53 93 CALM 29.98S 6HR MIN TEMP: 53; 6HR MAX TEMP: 58; 6HR PCP: 0.44; MILLINOCKET CLOUDY 53 52 96 CALM 29.99F 6HR MIN TEMP: 53; 6HR MAX TEMP: 56; 6HR PCP: 0.04; HOULTON CLOUDY 53 52 96 S8 29.96F FOG 6HR MIN TEMP: 53; 6HR MAX TEMP: 56; 6HR PCP: 0.19; PRESQUE ISLE CLOUDY 54 53 97 S5 29.96F 6HR MIN TEMP: 51; 6HR MAX TEMP: 56; 6HR PCP: TRACE; FRENCHVILLE FOG 52 50 93 CALM 29.94R VSB 1/4 6HR MIN TEMP: 52; 6HR MAX TEMP: 55; CARIBOU FOG 54 53 97 S7 29.94F VSB 1/2 6HR MIN TEMP: 52; 6HR MAX TEMP: 56; 6HR PCP: TRACE; $$ NHZ002-005-008-009-011-012-014-280700- NEW HAMPSHIRE CITY SKY/WX TMP DP RH WIND PRES REMARKS PORTSMOUTH MOCLDY 54 52 94 CALM 30.01S ROCHESTER CLEAR 56 53 90 CALM 30.01F 6HR MIN TEMP: 56; 6HR MAX TEMP: 66; NASHUA CLEAR 70 64 81 CALM 30.02S MANCHESTER MOCLDY 70 62 76 CALM 30.00S 6HR MIN TEMP: 69; 6HR MAX TEMP: 74; CONCORD CLEAR 63 59 87 CALM 30.02S 6HR MIN TEMP: 63; 6HR MAX TEMP: 74; PLYMOUTH N/A 62 60 96 CALM 30.03R FOG BERLIN CLOUDY 64 59 83 CALM 30.03R 6HR MIN TEMP: 63; 6HR MAX TEMP: 75; WHITEFIELD MOCLDY 64 60 87 CALM 30.03R 6HR MIN TEMP: 63; 6HR MAX TEMP: 79; JAFFREY CLEAR 67 62 84 SW5 30.06F 6HR MIN TEMP: 67; 6HR MAX TEMP: 79; KEENE PTCLDY N/A N/A N/A CALM 30.05S LEBANON CLOUDY 67 64 90 CALM 30.02R 6HR MIN TEMP: 67; 6HR MAX TEMP: 81; MT WASHINGTON FOG 55 55 100 W39G46 N/A VSB 0 6HR MIN TEMP: 54; 6HR MAX TEMP: 56; $$ VTZ005-007-008-280700- VERMONT CITY SKY/WX TMP DP RH WIND PRES REMARKS ST JOHNSBURY N/A 68 64 87 MISG 30.00S MONTPELIER FAIR 65 62 90 S5 30.07S BURLINGTON MOCLDY 75 65 70 S5 29.99S $$ MAZ007-012-024-CTZ003-RIZ002-NYZ038-NYZ072-280700- SOUTHERN NEW ENGLAND AND NY CITY SKY/WX TMP DP RH WIND PRES REMARKS BOSTON MOCLDY 68 59 73 SW9 30.03F WORCESTER CLEAR 65 60 84 SW10 30.06F NANTUCKET PTCLDY 59 56 89 SW8 30.13S PROVIDENCE CLEAR 65 55 70 S8 30.08S HARTFORD PTCLDY 67 60 78 S8 30.04F ALBANY PTCLDY 70 66 87 CALM 30.04R NEW YORK CITY PTCLDY 75 66 73 SW10G18 30.07S $$ ANZ081-ANZ082-ANZ150-NHZ014-MEZ023>029-280700- COASTAL MARINE OBSERVATIONS STATION/POSITION TIME TEMP WIND PRES WAVE AIR SEA DIR/SP/G HT/PER (UTC) (F) (DEG/KT/KT) (MB) (FT/S) MOUNT DESERT ROC 0600 48 360/ 7/ 7 1017.1S MATINICUS ROCK 0600 49 10/ 8/ 9 1016.7R ISLE OF SHOALS 0600 53 10/ 2/ 3 1016.3F JEFFREYS LEDGE 0508 52 N/A 3/ 4 CASHES LEDGE BUO 0550 54 52 230/ 8/ 10 1016.1F 3/ 4 GEORGES BANK BUO 0550 56 53 1021.1R 2/ 7 $$ .............KEY.............. WCI - WIND CHILL TC - TEMPERATURE IN CELSIUS VSB - VISIBILITY IN MILES HX - HEAT INDEX FAIR- INDICATES FEW OR NO CLOUDS BELOW 12,000 FT, WITH NO SIGNIFICANT WEATHER AND/OR OBSTRUCTIONS TO VISIBILITY.

USA.gov is the U.S. government's official web portal to all federal, state and local government web resources and services.